Year,Month,Day,Hour,Minute,Value (Times are PST for temperature in C)
2016,05,25,00,00,13.30
2016,05,25,00,01,13.30
2016,05,25,00,02,13.30
2016,05,25,00,03,13.30
2016,05,25,00,04,13.30
2016,05,25,00,05,13.30
2016,05,25,00,06,13.30
2016,05,25,00,07,13.30
2016,05,25,00,08,13.30
2016,05,25,00,09,13.30
2016,05,25,00,10,13.30
2016,05,25,00,11,13.30
2016,05,25,00,12,13.30
2016,05,25,00,13,13.30
2016,05,25,00,14,13.30
2016,05,25,00,15,13.30
2016,05,25,00,16,13.30
2016,05,25,00,17,13.30
2016,05,25,00,18,13.20
2016,05,25,00,19,13.20
2016,05,25,00,20,13.20
2016,05,25,00,21,13.20
2016,05,25,00,22,13.20
2016,05,25,00,23,13.20
2016,05,25,00,24,13.20
2016,05,25,00,25,13.20
2016,05,25,00,26,13.20
2016,05,25,00,27,13.20
2016,05,25,00,28,13.20
2016,05,25,00,29,13.20
2016,05,25,00,30,13.20
2016,05,25,00,31,13.20
2016,05,25,00,32,13.10
2016,05,25,00,33,13.10
2016,05,25,00,34,13.10
2016,05,25,00,35,13.10
2016,05,25,00,36,13.10
2016,05,25,00,37,13.10
2016,05,25,00,38,13.10
2016,05,25,00,39,13.10
2016,05,25,00,40,13.10
2016,05,25,00,41,13.10
2016,05,25,00,42,13.10
2016,05,25,00,43,13.10
2016,05,25,00,44,13.10
2016,05,25,00,45,13.10
2016,05,25,00,46,13.00
2016,05,25,00,47,13.00
2016,05,25,00,48,13.00
2016,05,25,00,49,13.00
2016,05,25,00,50,13.00
2016,05,25,00,51,13.00
2016,05,25,00,52,13.00
2016,05,25,00,53,13.00
2016,05,25,00,54,12.90
2016,05,25,00,55,12.90
2016,05,25,00,56,12.90
2016,05,25,00,57,12.90
2016,05,25,00,58,12.90
2016,05,25,00,59,12.90
2016,05,25,01,00,12.90
2016,05,25,01,01,12.90
2016,05,25,01,02,12.90
2016,05,25,01,03,12.90
2016,05,25,01,04,12.90
2016,05,25,01,05,12.90
2016,05,25,01,06,12.90
2016,05,25,01,07,12.90
2016,05,25,01,08,12.80
2016,05,25,01,09,12.80
2016,05,25,01,10,12.80
2016,05,25,01,11,12.80
2016,05,25,01,12,12.80
2016,05,25,01,13,12.80
2016,05,25,01,14,12.80
2016,05,25,01,15,12.80
2016,05,25,01,16,12.80
2016,05,25,01,17,12.80
2016,05,25,01,18,12.70
2016,05,25,01,19,12.70
2016,05,25,01,20,12.70
2016,05,25,01,21,12.70
2016,05,25,01,22,12.70
2016,05,25,01,23,12.70
2016,05,25,01,24,12.70
2016,05,25,01,25,12.60
2016,05,25,01,26,12.60
2016,05,25,01,27,12.60
2016,05,25,01,28,12.60
2016,05,25,01,29,12.60
2016,05,25,01,30,12.60
2016,05,25,01,31,12.60
2016,05,25,01,32,12.60
2016,05,25,01,33,12.60
2016,05,25,01,34,12.60
2016,05,25,01,35,12.50
2016,05,25,01,36,12.50
2016,05,25,01,37,12.50
2016,05,25,01,38,12.50
2016,05,25,01,39,12.50
2016,05,25,01,40,12.40
2016,05,25,01,41,12.40
2016,05,25,01,42,12.40
2016,05,25,01,43,12.40
2016,05,25,01,44,12.40
2016,05,25,01,45,12.40
2016,05,25,01,46,12.40
2016,05,25,01,47,12.40
2016,05,25,01,48,12.40
2016,05,25,01,49,12.40
2016,05,25,01,50,12.40
2016,05,25,01,51,12.40
2016,05,25,01,52,12.40
2016,05,25,01,53,12.40
2016,05,25,01,54,12.40
2016,05,25,01,55,12.40
2016,05,25,01,56,12.40
2016,05,25,01,57,12.40
2016,05,25,01,58,12.40
2016,05,25,01,59,12.40
2016,05,25,02,00,12.40
2016,05,25,02,01,12.40
2016,05,25,02,02,12.40
2016,05,25,02,03,12.40
2016,05,25,02,04,12.40
2016,05,25,02,05,12.40
2016,05,25,02,06,12.30
2016,05,25,02,07,12.30
2016,05,25,02,08,12.30
2016,05,25,02,09,12.30
2016,05,25,02,10,12.30
2016,05,25,02,11,12.30
2016,05,25,02,12,12.30
2016,05,25,02,13,12.30
2016,05,25,02,14,12.30
2016,05,25,02,15,12.30
2016,05,25,02,16,12.30
2016,05,25,02,17,12.30
2016,05,25,02,18,12.30
2016,05,25,02,19,12.30
2016,05,25,02,20,12.30
2016,05,25,02,21,12.30
2016,05,25,02,22,12.20
2016,05,25,02,23,12.20
2016,05,25,02,24,12.20
2016,05,25,02,25,12.20
2016,05,25,02,26,12.20
2016,05,25,02,27,12.20
2016,05,25,02,28,12.20
2016,05,25,02,29,12.20
2016,05,25,02,30,12.20
2016,05,25,02,31,12.10
2016,05,25,02,32,12.10
2016,05,25,02,33,12.10
2016,05,25,02,34,12.10
2016,05,25,02,35,12.10
2016,05,25,02,36,12.10
2016,05,25,02,37,12.10
2016,05,25,02,38,12.10
2016,05,25,02,39,12.10
2016,05,25,02,40,12.10
2016,05,25,02,41,12.00
2016,05,25,02,42,12.00
2016,05,25,02,43,12.00
2016,05,25,02,44,12.00
2016,05,25,02,45,12.00
2016,05,25,02,46,11.90
2016,05,25,02,47,11.90
2016,05,25,02,48,11.90
2016,05,25,02,49,11.90
2016,05,25,02,50,11.90
2016,05,25,02,51,11.90
2016,05,25,02,52,11.90
2016,05,25,02,53,11.90
2016,05,25,02,54,11.80
2016,05,25,02,55,11.80
2016,05,25,02,56,11.80
2016,05,25,02,57,11.80
2016,05,25,02,58,11.80
2016,05,25,02,59,11.80
2016,05,25,03,00,11.80
2016,05,25,03,01,11.80
2016,05,25,03,02,11.80
2016,05,25,03,03,11.80
2016,05,25,03,04,11.70
2016,05,25,03,05,11.70
2016,05,25,03,06,11.70
2016,05,25,03,07,11.70
2016,05,25,03,08,11.70
2016,05,25,03,09,11.70
2016,05,25,03,10,11.70
2016,05,25,03,11,11.70
2016,05,25,03,12,11.60
2016,05,25,03,13,11.60
2016,05,25,03,14,11.60
2016,05,25,03,15,11.60
2016,05,25,03,16,11.60
2016,05,25,03,17,11.60
2016,05,25,03,18,11.60
2016,05,25,03,19,11.50
2016,05,25,03,20,11.50
2016,05,25,03,21,11.50
2016,05,25,03,22,11.50
2016,05,25,03,23,11.40
2016,05,25,03,24,11.40
2016,05,25,03,25,11.40
2016,05,25,03,26,11.40
2016,05,25,03,27,11.40
2016,05,25,03,28,11.40
2016,05,25,03,29,11.30
2016,05,25,03,30,11.30
2016,05,25,03,31,11.30
2016,05,25,03,32,11.30
2016,05,25,03,33,11.30
2016,05,25,03,34,11.30
2016,05,25,03,35,11.20
2016,05,25,03,36,11.20
2016,05,25,03,37,11.20
2016,05,25,03,38,11.20
2016,05,25,03,39,11.20
2016,05,25,03,40,11.20
2016,05,25,03,41,11.20
2016,05,25,03,42,11.20
2016,05,25,03,43,11.20
2016,05,25,03,44,11.20
2016,05,25,03,45,11.20
2016,05,25,03,46,11.20
2016,05,25,03,47,11.20
2016,05,25,03,48,11.20
2016,05,25,03,49,11.20
2016,05,25,03,50,11.10
2016,05,25,03,51,11.10
2016,05,25,03,52,11.10
2016,05,25,03,53,11.10
2016,05,25,03,54,11.10
2016,05,25,03,55,11.10
2016,05,25,03,56,11.10
2016,05,25,03,57,11.10
2016,05,25,03,58,11.10
2016,05,25,03,59,11.10
2016,05,25,04,00,11.10
2016,05,25,04,01,11.10
2016,05,25,04,02,11.10
2016,05,25,04,03,11.10
2016,05,25,04,04,11.10
2016,05,25,04,05,11.10
2016,05,25,04,06,11.10
2016,05,25,04,07,11.10
2016,05,25,04,08,11.10
2016,05,25,04,09,11.10
2016,05,25,04,10,11.10
2016,05,25,04,11,11.10
2016,05,25,04,12,11.10
2016,05,25,04,13,11.10
2016,05,25,04,14,11.10
2016,05,25,04,15,11.10
2016,05,25,04,16,11.10
2016,05,25,04,17,11.10
2016,05,25,04,18,11.10
2016,05,25,04,19,11.10
2016,05,25,04,20,11.10
2016,05,25,04,21,11.10
2016,05,25,04,22,11.10
2016,05,25,04,23,11.10
2016,05,25,04,24,11.10
2016,05,25,04,25,11.10
2016,05,25,04,26,11.00
2016,05,25,04,27,11.00
2016,05,25,04,28,11.00
2016,05,25,04,29,11.00
2016,05,25,04,30,11.00
2016,05,25,04,31,11.00
2016,05,25,04,32,11.00
2016,05,25,04,33,11.00
2016,05,25,04,34,11.00
2016,05,25,04,35,11.00
2016,05,25,04,36,10.90
2016,05,25,04,37,10.90
2016,05,25,04,38,10.90
2016,05,25,04,39,10.90
2016,05,25,04,40,10.90
2016,05,25,04,41,10.90
2016,05,25,04,42,10.90
2016,05,25,04,43,10.90
2016,05,25,04,44,10.90
2016,05,25,04,45,10.80
2016,05,25,04,46,10.80
2016,05,25,04,47,10.80
2016,05,25,04,48,10.80
2016,05,25,04,49,10.80
2016,05,25,04,50,10.80
2016,05,25,04,51,10.80
2016,05,25,04,52,10.80
2016,05,25,04,53,10.80
2016,05,25,04,54,10.80
2016,05,25,04,55,10.70
2016,05,25,04,56,10.70
2016,05,25,04,57,10.70
2016,05,25,04,58,10.70
2016,05,25,04,59,10.70
2016,05,25,05,00,10.70
2016,05,25,05,01,10.70
2016,05,25,05,02,10.70
2016,05,25,05,03,10.70
2016,05,25,05,04,10.60
2016,05,25,05,05,10.60
2016,05,25,05,06,10.60
2016,05,25,05,07,10.60
2016,05,25,05,08,10.60
2016,05,25,05,09,10.60
2016,05,25,05,10,10.60
2016,05,25,05,11,10.60
2016,05,25,05,12,10.60
2016,05,25,05,13,10.60
2016,05,25,05,14,10.60
2016,05,25,05,15,10.60
2016,05,25,05,16,10.60
2016,05,25,05,17,10.60
2016,05,25,05,18,10.60
2016,05,25,05,19,10.60
2016,05,25,05,20,10.60
2016,05,25,05,21,10.60
2016,05,25,05,22,10.60
2016,05,25,05,23,10.60
2016,05,25,05,24,10.60
2016,05,25,05,25,10.60
2016,05,25,05,26,10.60
2016,05,25,05,27,10.60
2016,05,25,05,28,10.50
2016,05,25,05,29,10.50
2016,05,25,05,30,10.50
2016,05,25,05,31,10.50
2016,05,25,05,32,10.50
2016,05,25,05,33,10.50
2016,05,25,05,34,10.50
2016,05,25,05,35,10.50
2016,05,25,05,36,10.50
2016,05,25,05,37,10.50
2016,05,25,05,38,10.50
2016,05,25,05,39,10.50
2016,05,25,05,40,10.50
2016,05,25,05,41,10.40
2016,05,25,05,42,10.40
2016,05,25,05,43,10.40
2016,05,25,05,44,10.40
2016,05,25,05,45,10.40
2016,05,25,05,46,10.40
2016,05,25,05,47,10.40
2016,05,25,05,48,10.40
2016,05,25,05,49,10.40
2016,05,25,05,50,10.50
2016,05,25,05,51,10.50
2016,05,25,05,52,10.50
2016,05,25,05,53,10.50
2016,05,25,05,54,10.50
2016,05,25,05,55,10.50
2016,05,25,05,56,10.50
2016,05,25,05,57,10.50
2016,05,25,05,58,10.50
2016,05,25,05,59,10.60
2016,05,25,06,00,10.60
2016,05,25,06,01,10.60
2016,05,25,06,02,10.60
2016,05,25,06,03,10.60
2016,05,25,06,04,10.60
2016,05,25,06,05,10.60
2016,05,25,06,06,10.60
2016,05,25,06,07,10.60
2016,05,25,06,08,10.60
2016,05,25,06,09,10.60
2016,05,25,06,10,10.70
2016,05,25,06,11,10.70
2016,05,25,06,12,10.70
2016,05,25,06,13,10.70
2016,05,25,06,14,10.70
2016,05,25,06,15,10.70
2016,05,25,06,16,10.70
2016,05,25,06,17,10.70
2016,05,25,06,18,10.70
2016,05,25,06,19,10.80
2016,05,25,06,20,10.80
2016,05,25,06,21,10.80
2016,05,25,06,22,10.80
2016,05,25,06,23,10.80
2016,05,25,06,24,10.90
2016,05,25,06,25,10.90
2016,05,25,06,26,10.90
2016,05,25,06,27,10.90
2016,05,25,06,28,11.00
2016,05,25,06,29,11.00
2016,05,25,06,30,11.10
2016,05,25,06,31,11.10
2016,05,25,06,32,11.10
2016,05,25,06,33,11.10
2016,05,25,06,34,11.20
2016,05,25,06,35,11.20
2016,05,25,06,36,11.20
2016,05,25,06,37,11.20
2016,05,25,06,38,11.30
2016,05,25,06,39,11.30
2016,05,25,06,40,11.30
2016,05,25,06,41,11.30
2016,05,25,06,42,11.40
2016,05,25,06,43,11.40
2016,05,25,06,44,11.40
2016,05,25,06,45,11.50
2016,05,25,06,46,11.50
2016,05,25,06,47,11.60
2016,05,25,06,48,11.60
2016,05,25,06,49,11.60
2016,05,25,06,50,11.60
2016,05,25,06,51,11.70
2016,05,25,06,52,11.70
2016,05,25,06,53,11.70
2016,05,25,06,54,11.70
2016,05,25,06,55,11.80
2016,05,25,06,56,11.80
2016,05,25,06,57,11.80
2016,05,25,06,58,11.90
2016,05,25,06,59,11.90
2016,05,25,07,00,11.90
2016,05,25,07,01,12.00
2016,05,25,07,02,12.00
2016,05,25,07,03,12.10
2016,05,25,07,04,12.10
2016,05,25,07,05,12.10
2016,05,25,07,06,12.20
2016,05,25,07,07,12.20
2016,05,25,07,08,12.20
2016,05,25,07,09,12.30
2016,05,25,07,10,12.30
2016,05,25,07,11,12.30
2016,05,25,07,12,12.30
2016,05,25,07,13,12.40
2016,05,25,07,14,12.40
2016,05,25,07,15,12.40
2016,05,25,07,16,12.40
2016,05,25,07,17,12.40
2016,05,25,07,18,12.50
2016,05,25,07,19,12.50
2016,05,25,07,20,12.50
2016,05,25,07,21,12.50
2016,05,25,07,22,12.50
2016,05,25,07,23,12.60
2016,05,25,07,24,12.60
2016,05,25,07,25,12.60
2016,05,25,07,26,12.60
2016,05,25,07,27,12.60
2016,05,25,07,28,12.70
2016,05,25,07,29,12.70
2016,05,25,07,30,12.70
2016,05,25,07,31,12.70
2016,05,25,07,32,12.70
2016,05,25,07,33,12.80
2016,05,25,07,34,12.80
2016,05,25,07,35,12.80
2016,05,25,07,36,12.80
2016,05,25,07,37,12.80
2016,05,25,07,38,12.90
2016,05,25,07,39,12.90
2016,05,25,07,40,12.90
2016,05,25,07,41,12.90
2016,05,25,07,42,12.90
2016,05,25,07,43,12.90
2016,05,25,07,44,13.00
2016,05,25,07,45,13.00
2016,05,25,07,46,13.00
2016,05,25,07,47,13.00
2016,05,25,07,48,13.00
2016,05,25,07,49,13.10
2016,05,25,07,50,13.10
2016,05,25,07,51,13.10
2016,05,25,07,52,13.10
2016,05,25,07,53,13.10
2016,05,25,07,54,13.10
2016,05,25,07,55,13.10
2016,05,25,07,56,13.20
2016,05,25,07,57,13.20
2016,05,25,07,58,13.20
2016,05,25,07,59,13.30
2016,05,25,08,00,13.30
2016,05,25,08,01,13.30
2016,05,25,08,02,13.40
2016,05,25,08,03,13.40
2016,05,25,08,04,13.40
2016,05,25,08,05,13.50
2016,05,25,08,06,13.50
2016,05,25,08,07,13.60
2016,05,25,08,08,13.60
2016,05,25,08,09,13.60
2016,05,25,08,10,13.60
2016,05,25,08,11,13.60
2016,05,25,08,12,13.60
2016,05,25,08,13,13.60
2016,05,25,08,14,13.60
2016,05,25,08,15,13.60
2016,05,25,08,16,13.60
2016,05,25,08,17,13.70
2016,05,25,08,18,13.70
2016,05,25,08,19,13.70
2016,05,25,08,20,13.70
2016,05,25,08,21,13.70
2016,05,25,08,22,13.70
2016,05,25,08,23,13.80
2016,05,25,08,24,13.80
2016,05,25,08,25,13.80
2016,05,25,08,26,13.80
2016,05,25,08,27,13.80
2016,05,25,08,28,13.80
2016,05,25,08,29,13.80
2016,05,25,08,30,13.90
2016,05,25,08,31,13.90
2016,05,25,08,32,14.00
2016,05,25,08,33,14.00
2016,05,25,08,34,14.10
2016,05,25,08,35,14.10
2016,05,25,08,36,14.10
2016,05,25,08,37,14.10
2016,05,25,08,38,14.10
2016,05,25,08,39,14.20
2016,05,25,08,40,14.20
2016,05,25,08,41,14.20
2016,05,25,08,42,14.30
2016,05,25,08,43,14.30
2016,05,25,08,44,14.40
2016,05,25,08,45,14.50
2016,05,25,08,46,14.50
2016,05,25,08,47,14.60
2016,05,25,08,48,14.60
2016,05,25,08,49,14.70
2016,05,25,08,50,14.70
2016,05,25,08,51,14.80
2016,05,25,08,52,14.80
2016,05,25,08,53,14.90
2016,05,25,08,54,15.00
2016,05,25,08,55,15.00
2016,05,25,08,56,15.10
2016,05,25,08,57,15.10
2016,05,25,08,58,15.10
2016,05,25,08,59,15.20
2016,05,25,09,00,15.20
2016,05,25,09,01,15.20
2016,05,25,09,02,15.30
2016,05,25,09,03,15.40
2016,05,25,09,04,15.40
2016,05,25,09,05,15.40
2016,05,25,09,06,15.50
2016,05,25,09,07,15.60
2016,05,25,09,08,15.60
2016,05,25,09,09,15.60
2016,05,25,09,10,15.60
2016,05,25,09,11,15.60
2016,05,25,09,12,15.60
2016,05,25,09,13,15.70
2016,05,25,09,14,15.80
2016,05,25,09,15,15.80
2016,05,25,09,16,15.90
2016,05,25,09,17,15.90
2016,05,25,09,18,16.00
2016,05,25,09,19,16.00
2016,05,25,09,20,16.10
2016,05,25,09,21,16.10
2016,05,25,09,22,16.10
2016,05,25,09,23,16.20
2016,05,25,09,24,16.20
2016,05,25,09,25,16.20
2016,05,25,09,26,16.30
2016,05,25,09,27,16.30
2016,05,25,09,28,16.30
2016,05,25,09,29,16.40
2016,05,25,09,30,16.40
2016,05,25,09,31,16.40
2016,05,25,09,32,16.50
2016,05,25,09,33,16.50
2016,05,25,09,34,16.60
2016,05,25,09,35,16.60
2016,05,25,09,36,16.60
2016,05,25,09,37,16.60
2016,05,25,09,38,16.60
2016,05,25,09,39,16.60
2016,05,25,09,40,16.50
2016,05,25,09,41,16.50
2016,05,25,09,42,16.40
2016,05,25,09,43,16.30
2016,05,25,09,44,16.30
2016,05,25,09,45,16.20
2016,05,25,09,46,16.20
2016,05,25,09,47,16.20
2016,05,25,09,48,16.10
2016,05,25,09,49,16.10
2016,05,25,09,50,16.10
2016,05,25,09,51,16.10
2016,05,25,09,52,16.10
2016,05,25,09,53,16.10
2016,05,25,09,54,16.10
2016,05,25,09,55,16.10
2016,05,25,09,56,16.10
2016,05,25,09,57,16.10
2016,05,25,09,58,16.10
2016,05,25,09,59,16.10
2016,05,25,10,00,16.10
2016,05,25,10,01,16.20
2016,05,25,10,02,16.20
2016,05,25,10,03,16.20
2016,05,25,10,04,16.20
2016,05,25,10,05,16.20
2016,05,25,10,06,16.20
2016,05,25,10,07,16.20
2016,05,25,10,08,16.20
2016,05,25,10,09,16.20
2016,05,25,10,10,16.20
2016,05,25,10,11,16.20
2016,05,25,10,12,16.20
2016,05,25,10,13,16.20
2016,05,25,10,14,16.20
2016,05,25,10,15,16.30
2016,05,25,10,16,16.30
2016,05,25,10,17,16.30
2016,05,25,10,18,16.40
2016,05,25,10,19,16.50
2016,05,25,10,20,16.50
2016,05,25,10,21,16.60
2016,05,25,10,22,16.60
2016,05,25,10,23,16.60
2016,05,25,10,24,16.60
2016,05,25,10,25,16.70
2016,05,25,10,26,16.60
2016,05,25,10,27,16.60
2016,05,25,10,28,16.60
2016,05,25,10,29,16.50
2016,05,25,10,30,16.50
2016,05,25,10,31,16.50
2016,05,25,10,32,16.50
2016,05,25,10,33,16.50
2016,05,25,10,34,16.50
2016,05,25,10,35,16.50
2016,05,25,10,36,16.60
2016,05,25,10,37,16.60
2016,05,25,10,38,16.70
2016,05,25,10,39,16.70
2016,05,25,10,40,16.80
2016,05,25,10,41,16.80
2016,05,25,10,42,16.80
2016,05,25,10,43,16.80
2016,05,25,10,44,16.80
2016,05,25,10,45,16.80
2016,05,25,10,46,16.80
2016,05,25,10,47,16.70
2016,05,25,10,48,16.70
2016,05,25,10,49,16.60
2016,05,25,10,50,16.60
2016,05,25,10,51,16.50
2016,05,25,10,52,16.50
2016,05,25,10,53,16.50
2016,05,25,10,54,16.60
2016,05,25,10,55,16.60
2016,05,25,10,56,16.70
2016,05,25,10,57,16.70
2016,05,25,10,58,16.80
2016,05,25,10,59,16.80
2016,05,25,11,00,16.80
2016,05,25,11,01,16.80
2016,05,25,11,02,16.80
2016,05,25,11,03,16.80
2016,05,25,11,04,16.80
2016,05,25,11,05,16.80
2016,05,25,11,06,16.80
2016,05,25,11,07,16.90
2016,05,25,11,08,16.90
2016,05,25,11,09,16.90
2016,05,25,11,10,17.00
2016,05,25,11,11,17.00
2016,05,25,11,12,17.00
2016,05,25,11,13,17.10
2016,05,25,11,14,17.10
2016,05,25,11,15,17.10
2016,05,25,11,16,17.10
2016,05,25,11,17,17.10
2016,05,25,11,18,17.20
2016,05,25,11,19,17.20
2016,05,25,11,20,17.20
2016,05,25,11,21,17.20
2016,05,25,11,22,17.20
2016,05,25,11,23,17.20
2016,05,25,11,24,17.10
2016,05,25,11,25,17.10
2016,05,25,11,26,17.00
2016,05,25,11,27,17.00
2016,05,25,11,28,16.90
2016,05,25,11,29,16.90
2016,05,25,11,30,16.80
2016,05,25,11,31,16.80
2016,05,25,11,32,16.80
2016,05,25,11,33,16.90
2016,05,25,11,34,16.90
2016,05,25,11,35,16.90
2016,05,25,11,36,17.00
2016,05,25,11,37,17.00
2016,05,25,11,38,17.00
2016,05,25,11,39,17.10
2016,05,25,11,40,17.10
2016,05,25,11,41,17.10
2016,05,25,11,42,17.10
2016,05,25,11,43,17.20
2016,05,25,11,44,17.20
2016,05,25,11,45,17.20
2016,05,25,11,46,17.20
2016,05,25,11,47,17.30
2016,05,25,11,48,17.40
2016,05,25,11,49,17.40
2016,05,25,11,50,17.50
2016,05,25,11,51,17.50
2016,05,25,11,52,17.60
2016,05,25,11,53,17.50
2016,05,25,11,54,17.60
2016,05,25,11,55,17.50
2016,05,25,11,56,17.50
2016,05,25,11,57,17.50
2016,05,25,11,58,17.50
2016,05,25,11,59,17.50
2016,05,25,12,00,17.50
2016,05,25,12,01,17.50
2016,05,25,12,02,17.40
2016,05,25,12,03,17.40
2016,05,25,12,04,17.30
2016,05,25,12,05,17.20
2016,05,25,12,06,17.20
2016,05,25,12,07,17.20
2016,05,25,12,08,17.10
2016,05,25,12,09,17.10
2016,05,25,12,10,17.10
2016,05,25,12,11,17.20
2016,05,25,12,12,17.20
2016,05,25,12,13,17.30
2016,05,25,12,14,17.30
2016,05,25,12,15,17.40
2016,05,25,12,16,17.40
2016,05,25,12,17,17.40
2016,05,25,12,18,17.40
2016,05,25,12,19,17.40
2016,05,25,12,20,17.40
2016,05,25,12,21,17.40
2016,05,25,12,22,17.40
2016,05,25,12,23,17.40
2016,05,25,12,24,17.30
2016,05,25,12,25,17.40
2016,05,25,12,26,17.40
2016,05,25,12,27,17.50
2016,05,25,12,28,17.50
2016,05,25,12,29,17.60
2016,05,25,12,30,17.50
2016,05,25,12,31,17.40
2016,05,25,12,32,17.30
2016,05,25,12,33,17.20
2016,05,25,12,34,17.20
2016,05,25,12,35,17.10
2016,05,25,12,36,17.10
2016,05,25,12,37,17.10
2016,05,25,12,38,17.10
2016,05,25,12,39,17.10
2016,05,25,12,40,17.10
2016,05,25,12,41,17.10
2016,05,25,12,42,17.10
2016,05,25,12,43,17.10
2016,05,25,12,44,17.00
2016,05,25,12,45,17.00
2016,05,25,12,46,17.00
2016,05,25,12,47,16.90
2016,05,25,12,48,16.90
2016,05,25,12,49,16.90
2016,05,25,12,50,16.90
2016,05,25,12,51,16.90
2016,05,25,12,52,17.00
2016,05,25,12,53,17.00
2016,05,25,12,54,17.00
2016,05,25,12,55,16.90
2016,05,25,12,56,16.90
2016,05,25,12,57,16.90
2016,05,25,12,58,16.90
2016,05,25,12,59,16.90
2016,05,25,13,00,17.00
2016,05,25,13,01,17.00
2016,05,25,13,02,17.10
2016,05,25,13,03,17.10
2016,05,25,13,04,17.20
2016,05,25,13,05,17.20
2016,05,25,13,06,17.20
2016,05,25,13,07,17.20
2016,05,25,13,08,17.20
2016,05,25,13,09,17.20
2016,05,25,13,10,17.20
2016,05,25,13,11,17.20
2016,05,25,13,12,17.20
2016,05,25,13,13,17.20
2016,05,25,13,14,17.30
2016,05,25,13,15,17.30
2016,05,25,13,16,17.20
2016,05,25,13,17,17.20
2016,05,25,13,18,17.20
2016,05,25,13,19,17.20
2016,05,25,13,20,17.20
2016,05,25,13,21,17.20
2016,05,25,13,22,17.30
2016,05,25,13,23,17.30
2016,05,25,13,24,17.40
2016,05,25,13,25,17.40
2016,05,25,13,26,17.50
2016,05,25,13,27,17.60
2016,05,25,13,28,17.70
2016,05,25,13,29,17.70
2016,05,25,13,30,17.70
2016,05,25,13,31,17.80
2016,05,25,13,32,17.70
2016,05,25,13,33,17.70
2016,05,25,13,34,17.70
2016,05,25,13,35,17.70
2016,05,25,13,36,17.70
2016,05,25,13,37,17.60
2016,05,25,13,38,17.60
2016,05,25,13,39,17.50
2016,05,25,13,40,17.50
2016,05,25,13,41,17.40
2016,05,25,13,42,17.30
2016,05,25,13,43,17.30
2016,05,25,13,44,17.30
2016,05,25,13,45,17.30
2016,05,25,13,46,17.30
2016,05,25,13,47,17.20
2016,05,25,13,48,17.20
2016,05,25,13,49,17.20
2016,05,25,13,50,17.20
2016,05,25,13,51,17.30
2016,05,25,13,52,17.30
2016,05,25,13,53,17.40
2016,05,25,13,54,17.50
2016,05,25,13,55,17.60
2016,05,25,13,56,17.70
2016,05,25,13,57,17.80
2016,05,25,13,58,17.80
2016,05,25,13,59,17.80
2016,05,25,14,00,17.90
2016,05,25,14,01,17.90
2016,05,25,14,02,18.00
2016,05,25,14,03,18.00
2016,05,25,14,04,18.00
2016,05,25,14,05,18.00
2016,05,25,14,06,18.00
2016,05,25,14,07,18.00
2016,05,25,14,08,18.00
2016,05,25,14,09,18.10
2016,05,25,14,10,18.10
2016,05,25,14,11,18.00
2016,05,25,14,12,18.00
2016,05,25,14,13,17.90
2016,05,25,14,14,17.80
2016,05,25,14,15,17.80
2016,05,25,14,16,17.80
2016,05,25,14,17,17.80
2016,05,25,14,18,17.80
2016,05,25,14,19,17.90
2016,05,25,14,20,17.90
2016,05,25,14,21,18.00
2016,05,25,14,22,18.00
2016,05,25,14,23,18.10
2016,05,25,14,24,18.10
2016,05,25,14,25,18.20
2016,05,25,14,26,18.20
2016,05,25,14,27,18.20
2016,05,25,14,28,18.30
2016,05,25,14,29,18.30
2016,05,25,14,30,18.30
2016,05,25,14,31,18.30
2016,05,25,14,32,18.30
2016,05,25,14,33,18.20
2016,05,25,14,34,18.20
2016,05,25,14,35,18.10
2016,05,25,14,36,18.10
2016,05,25,14,37,18.10
2016,05,25,14,38,18.00
2016,05,25,14,39,18.00
2016,05,25,14,40,17.90
2016,05,25,14,41,17.80
2016,05,25,14,42,17.80
2016,05,25,14,43,17.80
2016,05,25,14,44,17.80
2016,05,25,14,45,17.80
2016,05,25,14,46,17.80
2016,05,25,14,47,17.80
2016,05,25,14,48,17.80
2016,05,25,14,49,17.90
2016,05,25,14,50,17.90
2016,05,25,14,51,17.90
2016,05,25,14,52,17.90
2016,05,25,14,53,17.80
2016,05,25,14,54,17.80
2016,05,25,14,55,17.70
2016,05,25,14,56,17.70
2016,05,25,14,57,17.70
2016,05,25,14,58,17.80
2016,05,25,14,59,17.80
2016,05,25,15,00,17.80
2016,05,25,15,01,17.80
2016,05,25,15,02,17.90
2016,05,25,15,03,17.90
2016,05,25,15,04,18.00
2016,05,25,15,05,18.00
2016,05,25,15,06,18.00
2016,05,25,15,07,18.10
2016,05,25,15,08,18.10
2016,05,25,15,09,18.10
2016,05,25,15,10,18.10
2016,05,25,15,11,18.10
2016,05,25,15,12,18.00
2016,05,25,15,13,18.00
2016,05,25,15,14,18.00
2016,05,25,15,15,18.10
2016,05,25,15,16,18.10
2016,05,25,15,17,18.20
2016,05,25,15,18,18.30
2016,05,25,15,19,18.40
2016,05,25,15,20,18.40
2016,05,25,15,21,18.40
2016,05,25,15,22,18.40
2016,05,25,15,23,18.30
2016,05,25,15,24,18.20
2016,05,25,15,25,18.20
2016,05,25,15,26,18.10
2016,05,25,15,27,18.10
2016,05,25,15,28,18.20
2016,05,25,15,29,18.20
2016,05,25,15,30,18.10
2016,05,25,15,31,18.10
2016,05,25,15,32,18.10
2016,05,25,15,33,18.10
2016,05,25,15,34,18.20
2016,05,25,15,35,18.20
2016,05,25,15,36,18.20
2016,05,25,15,37,18.10
2016,05,25,15,38,18.20
2016,05,25,15,39,18.20
2016,05,25,15,40,18.20
2016,05,25,15,41,18.20
2016,05,25,15,42,18.20
2016,05,25,15,43,18.20
2016,05,25,15,44,18.10
2016,05,25,15,45,18.10
2016,05,25,15,46,18.10
2016,05,25,15,47,18.20
2016,05,25,15,48,18.20
2016,05,25,15,49,18.30
2016,05,25,15,50,18.40
2016,05,25,15,51,18.40
2016,05,25,15,52,18.50
2016,05,25,15,53,18.60
2016,05,25,15,54,18.50
2016,05,25,15,55,18.40
2016,05,25,15,56,18.40
2016,05,25,15,57,18.30
2016,05,25,15,58,18.20
2016,05,25,15,59,18.20
2016,05,25,16,00,18.20
2016,05,25,16,01,18.20
2016,05,25,16,02,18.20
2016,05,25,16,03,18.20
2016,05,25,16,04,18.30
2016,05,25,16,05,18.30
2016,05,25,16,06,18.40
2016,05,25,16,07,18.40
2016,05,25,16,08,18.40
2016,05,25,16,09,18.40
2016,05,25,16,10,18.40
2016,05,25,16,11,18.40
2016,05,25,16,12,18.30
2016,05,25,16,13,18.30
2016,05,25,16,14,18.20
2016,05,25,16,15,18.20
2016,05,25,16,16,18.20
2016,05,25,16,17,18.30
2016,05,25,16,18,18.30
2016,05,25,16,19,18.40
2016,05,25,16,20,18.40
2016,05,25,16,21,18.40
2016,05,25,16,22,18.30
2016,05,25,16,23,18.20
2016,05,25,16,24,18.20
2016,05,25,16,25,18.20
2016,05,25,16,26,18.10
2016,05,25,16,27,18.00
2016,05,25,16,28,18.00
2016,05,25,16,29,18.00
2016,05,25,16,30,18.00
2016,05,25,16,31,18.00
2016,05,25,16,32,18.00
2016,05,25,16,33,18.00
2016,05,25,16,34,18.00
2016,05,25,16,35,18.10
2016,05,25,16,36,18.10
2016,05,25,16,37,18.20
2016,05,25,16,38,18.30
2016,05,25,16,39,18.30
2016,05,25,16,40,18.40
2016,05,25,16,41,18.50
2016,05,25,16,42,18.60
2016,05,25,16,43,18.60
2016,05,25,16,44,18.70
2016,05,25,16,45,18.60
2016,05,25,16,46,18.70
2016,05,25,16,47,18.60
2016,05,25,16,48,18.60
2016,05,25,16,49,18.50
2016,05,25,16,50,18.40
2016,05,25,16,51,18.40
2016,05,25,16,52,18.40
2016,05,25,16,53,18.30
2016,05,25,16,54,18.20
2016,05,25,16,55,18.10
2016,05,25,16,56,18.10
2016,05,25,16,57,18.10
2016,05,25,16,58,18.10
2016,05,25,16,59,18.10
2016,05,25,17,00,18.10
2016,05,25,17,01,18.10
2016,05,25,17,02,18.10
2016,05,25,17,03,18.00
2016,05,25,17,04,18.00
2016,05,25,17,05,18.00
2016,05,25,17,06,18.10
2016,05,25,17,07,18.10
2016,05,25,17,08,18.20
2016,05,25,17,09,18.20
2016,05,25,17,10,18.20
2016,05,25,17,11,18.20
2016,05,25,17,12,18.20
2016,05,25,17,13,18.10
2016,05,25,17,14,18.00
2016,05,25,17,15,18.00
2016,05,25,17,16,17.90
2016,05,25,17,17,17.80
2016,05,25,17,18,17.80
2016,05,25,17,19,17.80